Weather in Tarasovo

Russia / Udmurt Republic     56°15′06″N   54°06′37″E
temp.,
°C
wind,
m/s
gust,
m/s
humid.,
%
clouds,
%
prec.,
mm/h
press.,
hPa
HPBL,
m
20 may, fri
fri2001:00+2wnw35945 0.0 1008104
04:00+1w22935 0.0 100813
07:00+4sw2386100 0.0 1009341
10:00+7w457572 0.3 1009985
13:00+9w345978 0.5 10091301
16:00+10w125699 1.1 10081192
19:00+9n1170100 0.3 100758
22:00+6sse228799 0.6 100664
21 may, sat
sat2101:00+5nw3491100 0.5 1004202
04:00+4n4891100 0.9 1003371
07:00+3nne51097100 1.1 1003580
10:00+2n51198100 3.3 1003521
13:00+3n51197100 3.2 1002634
16:00+5nnw5996100 6.2 1002774
19:00+6nnw51086100 0.4 1002762
22:00+3nw3790100 0.5 1002189
22 may, sun
sun2201:00+2wnw388879 0.0 1000171
04:00+2wnw489662 0.0 1000209
07:00+3nw588526 0.0 999668
10:00+5wnw687690 0.1 9991185
13:00+6w686795 0.2 9981497
16:00+7w6865100 0.7 9981445
19:00+5w57715 0.4 998816
22:00+1sw398422 0.4 997194
23 may, mon
mon2301:000sw38905 0.0 997142
04:000sw37945 0.0 996131
07:00+4wsw487744 0.0 996562
10:00+7wsw576498 0.1 9951447
13:00+7wsw5763100 0.2 9961490
16:00+6wsw5774100 0.5 9981013
19:00+6wsw4780100 0.6 999763
22:00+2ssw389218 0.6 1000160
24 may, tue
tue2401:00+2s31094100 0.0 1000248
04:00+2s3895100 0.0 1001236
07:00+4ssw479197 0.3 1002531
10:00+5sw71091100 0.6 1003885
13:00+7sw5983100 0.6 10051032
16:00+8sw4772100 0.9 1006890
19:00+7w3479100 0.1 1007766
22:00+4wsw228571 0.2 100718